www.pogodaiklimat.ru

Погода и климат >> Архив погоды >> Туркменистан >> Сердар


АРХИВ ПОГОДЫ в Сердаре

Время (UTC), дата Ветер
(напр.,м/с)
 
Видим.   Явления Облачность Т
(С)
Тd
(С)
f
(%)
Тe
(С)
Тes
(С)
Комфортность P
(гПа)
Po
(гПа)
Тmin
(С)
Tmax
(С)
R
(мм)
R24
(мм)
S
(см)
18 16.08 В 2 10 км ясно +25.6 +11.5 41 +27 +27 жарко 1008.7 998.9 +34.2
21 16.08 В 3 10 км ясно +24.2 +11.0 43 +25 +25 комфорт 1009.0 999.2
00 17.08 В 6 10 км ясно +22.2 +11.1 49 +24 +24 комфорт 1009.3 999.4
03 17.08 В 4 20 км ясно +23.0 +10.3 45 +25 +26 комфорт 1008.6 998.8 +22.2
06 17.08 В 8 20 км ясно +28.0 +12.7 39 +29 +32 жарко 1009.0 999.3 +22.2
09 17.08 В 10 20 км ясно +34.5 +14.0 29 +35 +36 очень
жарко
1007.8 998.3
12 17.08 В 8 20 км ясно +35.6 +13.8 27 +36 +37 очень
жарко
1006.7 997.2
15 17.08 В 8 20 км ясно +33.4 +10.3 24 +33 +33 жарко 1007.1 997.6 +36.4
18 17.08 В 3 10 км ясно +27.1 +9.7 34 +28 +28 жарко 1008.4 998.7 +36.4
21 17.08 В 2 10 км ясно +23.8 +9.0 39 +25 +25 комфорт 1008.8 999.0
00 18.08 В 2 10 км ясно +21.0 +9.7 48 +23 +23 комфорт 1009.6 999.7
03 18.08 В 3 20 км ясно +23.0 +9.0 41 +24 +26 комфорт 1010.5 1000.6 +20.0
06 18.08 С 6 20 км 1 балл +28.8 +10.5 32 +29 +34 жарко 1011.3 1001.6 +20.0
09 18.08 В 6 20 км ясно +34.6 +12.3 26 +35 +41 очень
жарко
1010.2 1000.7
12 18.08 В 8 20 км ясно +36.6 +14.0 26 +37 +38 очень
жарко
1009.1 999.7
15 18.08 В 7 20 км ясно +35.4 +13.5 27 +36 +36 очень
жарко
1009.1 999.6 +36.8
18 18.08 В 3 10 км ясно +28.5 +12.5 37 +30 +30 жарко 1010.6 1000.9 +36.8
21 18.08 В 3 10 км ясно +24.4 +12.0 46 +26 +26 жарко 1011.0 1001.2
00 19.08 В 2 10 км ясно +21.4 +10.4 49 +23 +23 комфорт 1011.5 1001.5
03 19.08 В 2 20 км ясно +22.4 +10.4 47 +24 +26 комфорт 1013.3 1003.3 +20.6
06 19.08 В 3 20 км ясно +29.2 +13.4 38 +31 +41 жарко 1014.2 1004.5 +20.6
09 19.08 В 7 20 км ясно +36.0 +15.0 29 +38 +42 очень
душно
1012.8 1003.4
12 19.08 В 7 20 км ясно +37.6 +16.9 30 +40 +42 очень
душно
1012.2 1002.8
15 19.08 В 4 20 км ясно +35.0 +16.5 33 +38 +38 очень
душно
1011.9 1002.4 +20.6 +37.8
18 19.08 В 3 10 км ясно +27.4 +14.5 45 +30 +30 жарко 1013.6 1003.8 +37.8
21 19.08 В 2 10 км ясно +26.0 +13.8 47 +28 +28 жарко 1014.0 1004.2
00 20.08 В 2 10 км ясно +23.8 +13.1 51 +26 +26 жарко 1014.0 1004.1
03 20.08 штиль 0 20 км ясно +22.8 +13.4 55 +26 +28 жарко 1015.4 1005.5 +22.8
06 20.08 СВ 1 20 км ясно +32.0 +16.5 39 +35 +50 очень
душно
1016.1 1006.5 +22.8
09 20.08 В 5 20 км ясно +36.0 +17.0 33 +39 +48 очень
душно
1015.2 1005.7
12 20.08 В 1 20 км ясно +37.8 +18.4 32 +42 +49 опасность
перегрева
1013.6 1004.2
15 20.08 В 1 20 км ясно +36.0 +18.4 36 +40 +40 очень
душно
1013.2 1003.8 +38.0
18 20.08 В 1 10 км ясно +29.6 +15.8 43 +32 +32 душно 1014.3 1004.6 +38.0
21 20.08 В 2 10 км ясно +26.7 +14.4 47 +29 +29 жарко 1014.0 1004.2
00 21.08 штиль 0 10 км ясно +23.4 +13.0 52 +26 +26 жарко 1014.1 1004.2
03 21.08 штиль 0 20 км ясно +29.8 +13.3 36 +31 +33 жарко 1015.0 1005.1 +21.9
06 21.08 С 1 20 км ясно +32.0 +7.7 22 +31 +46 жарко 1015.0 1005.4 +21.9
09 21.08 СВ 3 20 км ясно +38.4 +9.8 18 +37 +51 опасность
солнечного
удара
1013.1 1003.7
12 21.08 СВ 3 20 км ясно +39.6 +7.3 14 +37 +43 очень
жарко
1011.5 1002.1
15 21.08 В 2 20 км ясно +36.8 +10.3 20 +36 +36 очень
жарко
1010.7 1001.3 +40.0
18 21.08 штиль 0 10 км ясно +28.6 +12.2 36 +30 +30 жарко 1011.2 1001.5 +40.0
21 21.08 В 3 10 км ясно +31.0 +8.9 25 +30 +30 жарко 1010.6 1001.0
00 22.08 ЮЗ 2 10 км ясно +24.2 +10.5 42 +25 +25 комфорт 1010.9 1001.0
03 22.08 штиль 0 20 км ясно +25.0 +11.7 43 +26 +29 жарко 1011.9 1002.1 +24.0
06 22.08 штиль 0 20 км ясно +35.0 +11.9 25 +35 +52 опасность
солнечного
удара
1011.5 1002.0 +24.0
09 22.08 СВ 2 20 км ясно +38.0 +10.2 19 +37 +53 опасность
солнечного
удара
1010.2 1000.8
12 22.08 штиль 0 20 км ясно +39.6 +8.5 15 +37 +46 очень
жарко
1008.8 999.5
15 22.08 штиль 0 20 км ясно +37.6 +8.2 17 +36 +36 очень
жарко
1007.7 998.3 +40.0
18 22.08 штиль 0 10 км ясно +31.2 +13.2 33 +32 +32 жарко 1010.0 1000.4 +40.0
21 22.08 штиль 0 10 км ясно +26.8 +12.3 41 +28 +28 жарко 1010.2 1000.5
00 23.08 штиль 0 10 км ясно +24.4 +10.9 43 +26 +26 жарко 1010.6 1000.8
03 23.08 штиль 0 20 км ясно +24.2 +11.2 44 +26 +28 жарко 1011.6 1001.7 +23.2
06 23.08 штиль 0 20 км ясно +36.0 +13.7 26 +36 +53 опасность
солнечного
удара
1012.4 1002.9 +23.2
09 23.08 СВ 5 20 км ясно +39.7 +9.7 17 +38 +47 очень
жарко
1011.6 1002.2
12 23.08 СВ 3 20 км ясно +40.4 +9.5 16 +39 +44 очень
жарко
1010.4 1001.0
15 23.08 СВ 4 20 км 1/0
[Ci fib]
+37.6 +10.3 19 +36 +36 очень
жарко
1010.4 1001.0 +41.1

 

Местоположение метеостанции Сердар (Балканский велаят, Туркменистан): широта 38.98 долгота 56.28 высота над уровнем моря 92 м.

В архиве по умолчанию представлена погода в Сердаре за последнюю неделю. Архивные данные за месяц целиком и за предыдущие месяцы, начиная с января 2011 года, Вы можете получить, выбрав интересующий диапазон дат из раскрывающегося списка и нажав кнопку "Ввод!".


*Определитесь, кто Вы:
робот инопланетянин человек

Внимание! Время в таблицах - всемирное. Для получения местного времени необходимо прибавить поправку, которая равна 5 ч.

Смотрите также архив погоды в соседних городах и на ближайших метеорологических станциях:

Погода в Гаррыгале (Балканский велаят, Туркменистан) (61 км)
Погода в Газаджаке (Лебапский велаят, Туркменистан) (72 км)
Погода в Бахарлы (Ахалский велаят, Туркменистан) (116 км)
Погода в Мараве Таппе (Иран) (124 км)
Погода в Unknown (Туркменистан) (126 км)
Погода в Небит-Даге (Балканский велаят, Туркменистан) (178 км)
Погода в Боджнурде (Иран) (191 км)
Погода в Гызылетреке (Балканский велаят, Туркменистан) (200 км)
Погода в Ербенте (Ахалский велаят, Туркменистан) (204 км)
Погода в Ашхабаде (город Ашхабад, Туркменистан) (214 км)

Пояснения к столбцам:

Ветер - указаны скорость ветра в м/с - средняя за 10 мин, порывы в срок и между сроками (в фигурных скобках) и направление, откуда дует ветер: С - северный, СВ - северо-восточный, В - восточный, ЮВ - юго-восточный, Ю - южный, ЮЗ - юго-западный, З - западный, СЗ - северо-западный.
Видимость - горизонтальная дальность видимости в метрах или километрах. При видимости от 1 до 10 км при отсутствии осадков обычно наблюдается дымка, при ухудшении видимости до 1 км и менее - туман. В сухую погоду видимость может ухудшаться дымом, пылью или мглою.
Явления - указаны атмосферные явления, наблюдавшиеся в срок или в последний час перед сроком; фигурными скобками обозначены явления, наблюдавшиеся между сроками (за 1-3 часа до срока); квадратными скобками обозначены град или гололедные отложения с указанием их диаметра в мм.
Облачность - указаны через наклонную черту общая и нижняя облачность в баллах и высота нижней границы облаков в метрах; квадратными скобками обозначены формы облаков: Ci - перистые, Cs - перисто-слоистые, Cc - перисто-кучевые, Ac - высококучевые, As - высокослоистые, Sc - слоисто-кучевые, Ns - слоисто-дождевые, Cu - кучевые, Cb - кучево-дождевые. Подробнее классификацию облаков см. в Атласе облаков (PDF).
T - Температура воздуха - температура, измеренная на высоте 2 м над землей.
Td - Температура точки росы - температура, при понижении до которой содержащийся в воздухе водяной пар достигнет насыщения.
f - Относительная влажность воздуха - влажноcть воздуха, измеренная на высоте 2 м над землей.
Te - Эффективная температура - температура, которую ощущает одетый по сезону человек в тени. Характеристика душности погоды. При расчете учитывается влияние влажности воздуха и скорости ветра на теплоощущения человека.
Tes - Эффективная температура на солнце - температура, которую ощущает человек, с поправкой на солнечный нагрев. Характеристика знойности погоды. Зависит от высоты солнца над горизонтом, облачности и скорости ветра. Ночью, в пасмурную погоду, а также при ветре 12 м/с и более поправка равна нулю.
P - Атмосферное давление - приведенное к уровню моря атмосферное давление.
Po - Атмосферное давление - измеренное на уровне метеостанции атмосферное давление.
Tmin - Минимальная температура - минимум температуры воздуха на высоте 2 м над землей.
Tmax - Максимальная температура - максимум температуры воздуха на высоте 2 м над землей.
R - Количество осадков - Количество выпавших осадков за период времени, мм. При наведении курсора мыши на число - период времени, за который выпало указанное количество осадков.
R24 - Количество осадков - Количество выпавших осадков за 24 часа, мм.
S - Снежный покров - Высота снежного покрова, см. При наведении курсора мыши на число - состояние снежного покрова и степень покрытия местности в баллах.